{"data":{"norad_id":54746,"intl_designator":"2022-171A","name":"YAOGAN-36 04A","alt_names":[],"object_type":"PAYLOAD","status":"ACTIVE","operator":null,"country":"PRC","launch_date":"2022-12-14","launch_site_code":"XICLF","launch_vehicle":null,"mission":null,"orbit_class":"UNKNOWN","rcs_meters":null,"size_class":null,"mass_kg":null,"dimensions":null,"purposes":[],"wikipedia_slug":null,"has_3d_model":false,"image_url":null,"decayed_at":null,"tle_current":{"epoch":"2026-05-25T01:45:28.330848Z","epoch_age_seconds":62051,"freshness":"FRESH","line1":"1 54746U 22171A   26145.07324457  .00006410  00000+0  28625-3 0  9995","line2":"2 54746  34.9916   6.3385 0006547  78.7513 281.3936 15.20667725191608","mean_motion":15.20667725,"eccentricity":0.0006547,"inclination_deg":34.9916,"raan_deg":6.3385,"arg_perigee_deg":78.7513,"mean_anomaly_deg":281.3936,"bstar":0.00028625,"rev_number":19160,"period_min":94.695243170233,"perigee_km":499.31967640478,"apogee_km":508.33091783663,"semimajor_km":6881.9622971207,"source":"CELESTRAK","updated_at":"2026-05-25T13:37:58.731943Z"}}}